This is the latest recevied weather packets stored in our database for station/object PY2VE-13. If no packets are shown the sender has not sent any weather packets the latest 10 day(s).
| Time | Temp. | Humidity | Pressure | Rain* | Wind** | Luminosity | Snow |
|---|---|---|---|---|---|---|---|
| 1778034835 | 26.11° C | 47% | 1024.5 hPa | - | - | - | - |
| 1778033935 | 26.67° C | 46% | 1024.5 hPa | - | - | - | - |
| 1778033035 | 26.67° C | 45% | 1024.7 hPa | - | - | - | - |
| 1778032135 | 26.67° C | 45% | 1024.6 hPa | - | - | - | - |
| 1778031235 | 27.22° C | 44% | 1024.4 hPa | - | - | - | - |
| 1778030335 | 27.78° C | 44% | 1024.3 hPa | - | - | - | - |
| 1778029435 | 28.33° C | 44% | 1024.2 hPa | - | - | - | - |
| 1778028535 | 28.89° C | 43% | 1024.2 hPa | - | - | - | - |
| 1778027635 | 28.89° C | 43% | 1024.2 hPa | - | - | - | - |
| 1778026735 | 28.89° C | 42% | 1024.1 hPa | - | - | - | - |
| 1778025835 | 29.44° C | 41% | 1024 hPa | - | - | - | - |
| 1778024935 | 28.89° C | 41% | 1024 hPa | - | - | - | - |
| 1778024035 | 28.89° C | 40% | 1024 hPa | - | - | - | - |
| 1778023135 | 29.44° C | 39% | 1023.8 hPa | - | - | - | - |
| 1778022235 | 29.44° C | 39% | 1023.7 hPa | - | - | - | - |
| 1778021334 | 30° C | 37% | 1023.4 hPa | - | - | - | - |
| 1778020434 | 30° C | 37% | 1023.2 hPa | - | - | - | - |
| 1778019534 | 30° C | 37% | 1023 hPa | - | - | - | - |
| 1778018634 | 30.56° C | 37% | 1022.8 hPa | - | - | - | - |
| 1778017734 | 30.56° C | 37% | 1022.7 hPa | - | - | - | - |
| 1778016834 | 30.56° C | 37% | 1022.6 hPa | - | - | - | - |
| 1778015934 | 30.56° C | 35% | 1022.5 hPa | - | - | - | - |
| 1778015034 | 31.11° C | 35% | 1022.2 hPa | - | - | - | - |
| 1778014134 | 31.67° C | 34% | 1022.2 hPa | - | - | - | - |
| 1778013234 | 32.22° C | 33% | 1022.1 hPa | - | - | - | - |
* Rain since midnight (hover to see other rain measurements)
** Current wind speed in m/s (hover to see current wind gust speed)